Regional Weather Roundup
Issued by NWS

Home | Current Version | Previous Version | Text Only | Print | Product List | Glossary On
Versions: 1 2 3 4 5 6 7 8 9 10 11 12 13 14 15 16 17 18 19 20 21 22 23 24 25 26 27 28 29 30 31 32 33 34 35 36 37 38 39 40 41 42 43 44 45 46 47 48 49 50
000
ASUS44 KMEG 220710
RWRTN
TENNESSEE HOURLY STATE WEATHER ROUNDUP
NATIONAL WEATHER SERVICE MEMPHIS TN
200 AM CDT WED OCT 22 2014

TNZ002-004-019-021-049-052-054-088>092-220800-
WEST TENNESSEE

CITY           SKY/WX    TMP DP  RH WIND       PRES   REMARKS
MEMPHIS INTL   CLEAR     58  46  64 E9        30.12R
JACKSON        CLEAR     52  44  74 NE5       30.13S
DYERSBURG      CLEAR     52  37  58 NE6       30.16S
UNION CITY     CLEAR     46  43  87 NE6       30.15R
PARIS          CLEAR     45  39  81 NE3       30.16R
LEXINGTON      CLEAR     48  43  81 NE3       30.12S
SAVANNAH       CLEAR     48  46  93 CALM      30.12R
$$

TNZ008-025-027-028-033-062-065-066-220800-
NORTH MIDDLE TENNESSEE

CITY           SKY/WX    TMP DP  RH WIND       PRES   REMARKS
NASHVILLE      CLEAR     50  43  77 N3        30.15R
CLARKSVILLE    CLEAR     46  41  82 N5        30.16R
SMYRNA         CLEAR     44  41  89 CALM      30.16R
COOKEVILLE       N/A     37  37 100 CALM      30.12S VSB 3/4
CROSSVILLE     CLEAR     43  38  82 NW3       30.11S
$$

TNZ061-075-076-078-094-096-097-220800-
SOUTH MIDDLE TENNESSEE

CITY           SKY/WX    TMP DP  RH WIND       PRES   REMARKS
FAYETTEVILLE   CLEAR     46  41  81 NE7       30.11R
TULLAHOMA      CLEAR     46  39  76 NE5       30.12S
WINCHESTER     MOCLDY    41  39  93 CALM      30.12R
MCMINNVILLE    CLEAR     43  41  93 CALM      30.12S
COLUMBIA         N/A     45  45 100 CALM      30.12R
SHELBYVILLE    CLEAR     46  43  87 N5        30.13S
$$

TNZ017-018-042-046-047-220800-
NORTHEAST TENNESSEE

CITY           SKY/WX    TMP DP  RH WIND       PRES   REMARKS
TRI CITIES     CLOUDY    49  40  71 W5        30.08R
ELIZABETHTON   CLOUDY    45  37  76 SW7       30.07S
$$

TNZ012-013-036-069-073-074-220800-
CENTRAL EAST TENNESSEE

CITY           SKY/WX    TMP DP  RH WIND       PRES   REMARKS
KNOXVILLE      CLEAR     47  41  80 N6        30.09S
OAK RIDGE      CLEAR     44  40  85 CALM      30.12S
GATLINBURG     MOSUNNY   41  39  93 CALM      30.09S
MORRISTOWN     SUNNY     43  39  87 CALM      30.10S
$$

TNZ083-085-099-220800-
SOUTHEAST TENNESSEE

CITY           SKY/WX    TMP DP  RH WIND       PRES   REMARKS
CHATTANOOGA    CLEAR     51  41  68 N7        30.10S
$$

SKY/WX REPORTED AS FAIR MEANS FEW OR NO CLOUDS BELOW
12 THOUSAND FEET.




USA.gov is the U.S. government's official web portal to all federal, state and local government web resources and services.